Showing default

HULIANWANG DIGUI-12, 62972

Orbit data source: Space-Track

HULIANWANG DIGUI-12, 62972 is a payload satellite owned by Zhongguo Xingwang (CN) in LEO that was launched on Tue, 11 Feb 2025 UTC via a CHANG ZHENG 8A launch vehicle from the Wenchang Satellite Launch Center (WSC). Payload-class satellites include a variety of spacecraft equipped with specific instruments for various scientific and technological missions. These include communications satellites like Starlink; space stations such as the ISS; scientific satellites like the Hubble; Earth observation satellites from companies like Planet Labs, Umbra, and HawkEye 360; GPS; miniature CubeSats for education and research; and military/defense satellites.

Loading next visibility...
Identifier
62972, 2025-030B
Orbit
LEO
Country
Flag of CNCN / PRC
Related business
Manufacturer
CAST
Mission
Operational Civil Communications
Bus & Motor
XINGWANG C, Unknown motor
Mass
~700 kg wet, ~700 kg dry
Launch date (UTC)
2025-02-11 (1 year ago)
Launch vehicle
CHANG ZHENG 8A
Launch site
Wenchang Satellite Launch Center (WSC)
Object type
Payload
Rocket body
Debris
Shape & HBR
Box + 2 Pan, 2.2 m
Radar Cross Section
5.935 m², Large (>1 m²)

Expand to show TLE details & history
Last TLE update: 9 hours ago

TLE from 9 hours ago
0 HULIANWANG DIGUI-12
1 62972U 25030B   26037.28121108 -.00000070  00000-0  11685-3 0  9999
2 62972  50.0044 345.4705 0000565  93.3559 266.7378 13.29337578 48446
Epoch: 2026-02-06T06:44Z
TLE epoch observation values (Epoch: 2026-02-06T06:44:56.637Z)
Latitude
0.00001°
Longitude
107.81318°
Altitude
1,149.793 km
Speed
7.279 km/s
True Right ascension
23h 01m 52s
True Declination
0° 00' 00"
Sunlit
Object was in daylight at epoch
Visualization orbit readout
Latitude
Unknown
Longitude
Unknown
Altitude
Unknown
Speed
Unknown
Apparent Right ascension
Unknown
Apparent Declination
Unknown
Sunlit
N/A
Visualization observer readout
Local Sidereal Time
17:43:27
Azimuth
Unknown
Elevation
Unknown
Doppler factor
Unknown
Orbital elements
Apogee altitude
1,150.393 km
Perigee altitude
1,149.542 km
Semi-major axis
7,528.105 km
Eccentricity
0.00006
Inclination
50.0044°
RAAN
345.4705°
Arg. of periapsis
93.3559°
True anomaly
266.73134°
Mean anomaly
266.7378°
Eccentric anomaly
266.73457°
Mean motion
3.32288 °/min
Orbital period
108.34 mins
BSTAR
0.00011685
Loading maneuver chart data...
Computing Atmospheric mass density...
Loading historical data...
Loading historical data...
Loading historical data...
Loading historical data...
Loading historical data...
Loading historical data...
Loading historical data...

Documentation

Showing up to 5 results
|